GFSNIL_prec_radar_132.txt.gz
Reflectivity
-2 -13 9 7 8 9 6 4 1 -11 10 3 -20 -18 -2 -20 -20 -20 0 12 16 4
-20 10 11 4 7 10 5 9 11 15 8 6 12 -20 -14 -5 -17 -20 0 10 0 1
-20 15 6 8 15 16 13 17 21 23 22 8 10 1 8 10 2 -16 -20 -20 11 13
6 15 15 17 24 13 18 18 24 23 19 18 17 13 6 9 4 3 2 -20 3 -20
19 18 18 20 12 8 7 18 21 23 20 16 18 16 15 8 16 15 9 12 -9 3
20 17 14 18 18 11 2 7 17 24 25 21 21 22 20 18 15 -1 5 10 -2 12
16 20 24 24 20 20 10 -2 3 11 17 24 24 22 23 24 19 18 6 12 17 -17
4 3 4 8 15 18 5 12 12 -1 -5 5 6 12 7 11 3 10 14 25 24 17
-20 -3 -3 -9 -5 -8 3 -6 -20 -18 -17 -15 1 -13 2 16 16 14 15 20 25 3
-20 -20 -20 -20 -20 -20 -12 -7 -13 -20 -19 -16 -5 -1 -13 -1 11 8 6 9 11 19
-20 -20 -20 -20 -20 -20 -20 -20 -20 -20 -20 -20 -20 -20 -20 -20 -15 3 18 19 19 8
-20 -20 -20 -20 -20 -20 -20 -20 -20 -20 -20 -20 -20 -20 -20 -20 -14 -10 -10 -2 11 8
-20 -20 -20 -20 -20 -20 -20 -20 -20 -20 -20 -20 -20 -20 -20 -20 -20 -7 1 -2 1 6
-20 -20 -20 -20 -20 -20 -20 -20 -20 -20 -20 -20 -20 -20 -20 -20 -20 -20 -15 -8 1 9

GFSNIL_prec_radar_135.txt.gz
Reflectivity
-5 -2 9 9 11 11 10 11 9 4 4 3 10 8 3 -20 -19 -3 3 -20 -19 -7
-2 3 8 4 2 8 7 13 11 12 12 9 2 7 10 9 -14 -17 -0 -4 1 11
1 1 9 12 5 6 11 17 12 14 14 12 15 20 15 10 4 5 1 -20 -20 -6
11 15 15 8 10 5 2 21 19 19 18 22 23 19 17 19 11 12 4 -20 -3 2
18 14 12 8 6 11 14 16 12 17 20 24 24 20 20 25 21 22 10 8 -15 -20
7 12 10 11 4 17 20 17 12 9 11 15 20 21 17 21 11 13 17 19 6 -10
6 9 9 -3 7 -8 3 9 18 21 20 14 11 9 9 10 4 3 13 14 15 19
-9 1 3 -15 -6 7 9 -6 -16 -11 7 16 16 18 15 10 5 6 7 1 13 22
-20 -20 -14 -18 -20 -20 -20 -16 -13 -11 -20 -20 3 -12 -10 -1 17 8 6 15 13 15
-20 -20 -20 -20 -20 -11 -17 -20 -15 -20 -18 -20 -20 -20 -20 -20 -20 -20 -18 -19 2 3
-20 -20 -20 -20 -20 -20 -6 -8 -9 -7 -20 -1 -20 -20 -20 -20 -20 -20 -20 -6 -20 -20
-20 -20 -20 -20 -8 -19 -20 -11 -4 1 -8 -17 -20 -20 -20 -20 -20 -20 -20 -2 -5 -20
-20 -20 -20 -20 -20 -20 -20 -20 -20 -8 -1 -20 -20 -20 -20 -20 -20 -20 -20 -20 1 -13
-20 -20 -20 -20 -20 -20 -20 -20 -20 -20 -20 -20 -20 -20 -20 -20 -20 -20 -20 -4 -1 -6

GFSNIL_prec_radar_138.txt.gz
Reflectivity
-7 -3 4 4 3 5 8 6 8 9 7 3 3 7 4 7 3 -6 -18 -19 5 4
-7 2 3 6 6 9 9 10 13 11 10 7 7 7 7 4 6 7 1 -9 -13 3
-3 5 6 4 6 4 5 9 7 13 10 11 12 16 20 19 18 13 11 8 1 6
-0 3 6 5 6 5 7 6 7 19 21 25 18 17 21 18 17 23 13 7 18 1
1 -1 -0 2 10 7 8 11 9 19 5 5 8 16 20 19 19 17 17 15 10 -3
-14 -3 2 0 2 6 14 17 14 17 14 6 9 10 11 17 13 17 14 9 -9 -20
-12 -3 -2 -3 -18 -7 -2 -7 -9 12 17 21 18 13 8 6 10 13 7 3 10 3
-16 -20 -20 -20 -20 -18 -3 2 -9 -20 -19 -12 5 15 15 17 15 10 1 6 9 9
-20 -20 -20 -20 -20 -20 -20 -20 -20 -4 -8 -1 5 -20 -12 -19 4 5 -0 3 -13 -12
-20 -20 -20 -20 -20 -20 -20 -20 -20 -1 -11 -20 -20 -20 -20 -20 3 3 2 -14 -3 1
-20 -20 -20 -20 -20 -20 -20 -20 -20 -8 -9 -20 -20 -20 -20 -20 -20 -7 -0 1 1 -2
-20 -20 -20 -20 -20 -20 -20 -20 -20 -20 -20 -9 -20 -20 -20 -20 -20 -20 -20 -8 -18 -17
-20 -20 -20 -20 -20 -20 -20 -20 -20 -20 -20 -20 -6 -20 -20 -20 -20 -20 -20 -20 -20 -20
-20 -20 -20 -20 -20 -20 -20 -20 -20 -20 -20 -20 -20 -20 -20 -20 -20 -20 -20 -20 -20 -20

GFSNIL_prec_radar_141.txt.gz
Reflectivity
-20 -20 -8 1 3 5 9 10 9 9 8 8 6 5 7 2 7 -10 4 3 -6 -3
-20 -8 -2 4 6 11 12 9 7 10 9 7 13 20 16 14 6 5 7 7 3 -0
-20 -2 3 7 12 8 11 10 8 11 13 17 17 21 21 18 19 18 20 13 4 5
-3 -0 0 4 7 6 7 12 13 9 10 11 21 27 28 27 20 15 14 8 4 12
-7 -4 -1 -1 7 7 15 21 22 20 7 3 7 12 19 22 25 17 22 14 7 12
-20 -5 0 7 -5 -6 -12 4 14 12 16 15 6 2 7 12 11 12 15 19 17 19
-20 -4 -1 -6 -17 -19 -20 -20 -20 -18 4 10 15 20 19 11 9 15 12 11 11 14
-20 -20 -20 -19 -20 -20 -19 -6 -9 -20 -20 -20 -18 -6 -9 7 17 16 13 16 20 -0
-20 -20 -20 -20 -20 -20 -20 -20 -1 0 -10 1 3 -20 -20 -20 -20 -20 -5 5 -5 -20
-20 -20 -20 -20 -20 -20 -8 -16 -20 2 0 1 1 -20 -20 -20 -10 -20 -8 3 -6 -11
-20 -20 -20 -20 -20 -13 -20 -12 -13 -20 -13 -13 -11 -20 -20 -20 -20 -13 -20 -20 -20 -17
-20 -20 -20 -20 -20 -3 -20 -20 -20 -20 -20 -20 -20 -20 -20 -20 -17 -20 -20 -19 -20 -20
-20 -20 -20 -4 -18 -4 -5 -1 -18 -20 -20 -20 -20 -20 -20 -20 -20 -20 -20 -20 -3 -20
-20 -20 -20 -20 -20 -20 -20 -20 -20 -20 -20 -20 -20 -20 -20 -20 -19 -20 -20 -20 -12 -9

GFSNIL_prec_radar_144.txt.gz
Reflectivity
-20 -20 -20 -4 3 7 11 9 7 6 6 5 11 11 10 7 7 6 11 -4 15 14
-20 -20 -20 -0 4 8 3 11 13 5 10 10 7 7 9 17 18 -6 -1 3 13 17
-20 -20 -12 -13 5 5 16 22 10 9 7 3 9 5 6 7 17 20 18 20 17 14
-20 -17 -6 -15 1 7 25 21 9 7 5 5 12 7 7 16 22 16 22 20 18 17
-20 -20 -6 -20 -4 -7 7 14 10 10 7 1 3 11 2 5 7 13 15 11 10 14
-20 -20 -16 -20 -5 -9 -8 -17 -19 -9 -2 -8 7 9 9 5 10 11 10 10 10 9
-20 -20 -20 -20 -20 -20 -20 -20 -20 -20 -17 -19 -20 -19 -8 -5 10 14 17 22 18 21
-20 -20 -20 -10 -20 -20 -20 -20 -3 -20 -20 -17 -20 -20 -20 -20 -20 -14 6 6 14 13
-20 -20 -20 -20 -4 -20 -20 -20 -20 -12 -20 -20 -2 -20 -20 -20 -20 -20 -20 -20 -20 -20
-20 -20 -20 -20 -20 -15 -20 -20 -20 -20 -20 -20 -20 -4 -20 -20 -20 -20 -20 -20 -20 -20
-20 -20 -20 -20 -20 -20 -20 -20 -20 -20 -20 -20 -20 -20 -13 -20 -20 -20 -20 -20 -20 -20
-20 -20 -20 -20 -20 -20 -20 -20 -20 -20 -20 -20 -20 -20 -20 -20 -20 -20 -20 -20 -20 -20
-20 -20 -20 -20 -20 -20 -20 -20 -20 -20 -20 -20 -20 -20 -20 -20 -20 -20 -20 -20 -20 -20
-20 -20 -20 -20 -20 -20 -20 -20 -20 -20 -20 -20 -20 -20 -20 -20 -20 -20 -20 -20 -20 -20

GFSNIL_prec_radar_147.txt.gz
Reflectivity
-20 -20 -20 -20 -13 -4 3 5 5 8 -20 -2 6 7 6 12 4 11 8 7 6 15
-20 -20 -20 -20 -18 -20 1 13 14 6 -1 5 12 5 8 4 10 16 22 22 15 15
-20 -20 -20 -20 -4 -20 -7 5 16 7 -4 -3 4 -1 8 3 9 16 18 21 21 22
-20 -20 -20 -20 -20 -20 -17 1 -6 5 1 -2 -4 -5 -6 2 -1 -15 -18 1 -3 3
-20 -20 -20 -20 -19 -20 -20 -20 -20 -19 -13 -9 -15 -2 -15 -18 -13 -11 -18 -13 2 -2
-20 -20 -20 -20 -20 -20 -20 -20 -20 -20 -20 -20 -20 -20 -20 -20 -17 -2 1 -16 -3 7
-20 -20 -20 -20 -20 -20 -20 -20 -20 -20 -20 -20 -20 -20 -20 -20 -20 -20 -12 5 11 15
-20 -20 -20 -20 -20 -20 -20 -20 -20 -20 -20 -20 -20 -20 -20 -20 -20 -20 -20 -20 -20 -9
-20 -20 -20 -20 -20 -20 -20 -20 -20 -20 -20 -20 -19 -1 -20 -20 -20 -20 -20 -20 -20 -20
-20 -20 -20 -20 -20 -20 -20 -20 -20 -20 -20 -20 -20 -0 -1 -20 -20 -20 -20 -20 -20 -20
-20 -20 -20 -20 -20 -20 -20 -20 -20 -20 -20 -20 -20 -20 -16 -20 -20 -20 -20 -20 -20 -20
-20 -20 -20 -20 -20 -20 -20 -20 -20 -20 -20 -20 -20 -20 -20 -20 -20 -20 -20 -20 -20 -20
-20 -20 -20 -20 -20 -20 -20 -20 -20 -20 -20 -20 -20 -20 -20 -20 -20 -20 -20 -20 -20 -20
-20 -20 -20 -20 -20 -20 -20 -20 -20 -20 -20 -20 -20 -20 -20 -14 -20 -20 -20 -20 -20 -20